CAPE
4489 4558 4396 4246 4196 3926 3869 4079 3988 3874 3718 3224 3200 2607 2276 2126 2256 1964 1594 1596 1469 1112 1597 1552 1508 1554 1477 1333 978 918 1210 842 894 1436 1154 1239 1192 1041 820 782 823 853
4413 4478 4214 4256 4219 4102 4217 3978 3963 3843 3826 3492 2997 2826 2563 2225 2180 2163 1862 1558 1474 1136 1366 1537 1528 1622 1404 1223 1201 910 928 1094 1074 864 1289 1139 1351 1110 878 1008 962 938
4264 4383 4360 4206 4142 4150 3539 3850 4014 4013 3828 3438 3170 3095 2486 2413 1980 2090 1996 1704 1293 940 1422 1494 1634 1522 1314 1270 1196 1067 1169 1235 935 648 1272 1137 1281 1280 1301 879 922 770
4246 4327 4095 3900 3882 3962 3712 3770 3968 3966 3682 3518 3152 3033 2374 2049 2111 2019 1988 1928 1564 1216 1245 1251 1409 1186 1232 1240 1304 1092 1037 1154 1102 1011 1494 1370 1363 1312 1071 1020 1014 1026
4428 4259 4087 3973 3971 4015 3872 3928 3627 3916 3558 3486 3213 2894 2763 2430 2249 1846 1830 1596 1694 1460 1278 1475 1456 1219 1264 1096 1176 1059 880 1156 1190 1166 1294 1525 1380 1165 1023 1212 1123 826
4743 4469 4333 4158 4074 4067 3880 3787 3744 3595 3525 3456 3254 2965 2672 2560 2233 1788 1684 1374 1396 1152 1098 1208 1383 1176 1132 1119 1154 1158 986 894 948 1132 1080 1187 1041 1100 862 962 1063 852
4955 4863 4592 4300 4140 3928 3876 3738 3696 3667 3707 3394 3350 2901 2434 2344 2228 1944 1579 1428 1066 1174 1154 1122 1311 1375 1181 1423 1338 1106 1286 1001 1135 1019 959 1021 1020 1117 943 1040 1207 1025
4942 4869 4793 4481 4251 4058 3760 3790 3807 3844 3954 3736 3358 3084 2464 2216 2204 2126 1790 1571 1114 1258 1212 1375 1564 1435 1407 1455 1296 1225 1191 1071 952 1141 966 888 989 931 1100 1035 1161 1014
5012 5026 4702 4525 4293 4176 3632 3495 3828 3962 4024 3818 3341 2969 2584 2308 2189 2060 2016 1719 1336 1301 1337 1430 1568 1511 1275 1421 1258 1366 1110 911 688 993 1080 972 910 1024 990 1066 1002 1090
5044 5096 4841 4352 4120 4086 3470 3127 3141 3890 3906 3829 3411 2890 2765 2588 2320 2138 2115 1798 1624 1477 1440 1375 1525 1412 1262 1266 1335 1274 1185 960 742 814 1045 933 858 782 889 1008 1033 1136
4919 5008 4996 4792 4169 4046 3806 3140 3326 3445 3724 3538 3372 2987 2868 2652 2470 2223 2105 1862 1668 1692 1360 1340 1476 1462 1317 979 1348 1277 1116 983 935 939 868 878 834 914 1130 1095 1100 1016
4908 4781 4932 4705 4394 4134 3884 3395 3181 3635 3684 3466 3279 3135 2994 2569 2553 2226 1942 1739 1588 1594 1452 1135 1275 1364 1271 1004 1121 1092 1033 894 974 1092 931 967 1012 1064 1134 1200 1241 1333
5016 4818 4938 4822 4703 4458 4236 3838 3346 3272 3514 3328 3099 2953 2946 2610 2436 2203 1726 1644 1470 1531 1510 994 959 1319 1279 1114 1000 919 1018 965 946 1070 1012 1001 990 980 998 1052 1167 1231
5076 4884 5034 4948 4754 4689 4492 4008 3512 3422 3636 3801 3413 3310 2960 2666 2272 2037 1642 1550 1414 1414 1336 1073 1046 1299 1421 1214 1043 1017 1054 1136 1104 1034 990 912 990 1072 1024 928 1065 1179
5293 5171 4996 5082 5054 4882 4588 4386 4082 3861 3929 3999 3719 3332 2777 2579 2246 1915 1566 1460 1377 1354 1143 1003 1064 889 1340 1244 1118 1122 1036 1054 1254 1208 1044 982 957 949 951 989 946 961
5544 5500 5396 5469 5257 5028 4794 4608 4380 4070 3900 3937 3678 3280 2902 2626 2155 1927 1560 1412 1351 1320 1126 1066 762 881 1175 959 941 1144 1196 1160 1247 1180 1132 1213 1288 1181 1043 1112 998 880
5884 5944 5880 5696 5348 5126 4982 4738 4364 4152 3895 4042 3846 3416 2969 2731 2261 1994 1518 1285 1281 1230 1175 965 1153 839 773 634 682 768 1023 1091 1178 1315 1283 1386 1461 1465 1361 1230 1026 980
6168 6151 5981 5819 5411 5118 5000 4758 4415 4198 4075 4177 4056 3703 3417 2705 2344 2069 1679 1304 1226 1273 1108 950 1181 882 846 603 580 697 778 1106 1042 1152 1114 1382 1427 1316 1460 1431 1425 1327
6390 6142 5816 5609 5241 5048 5018 4935 4685 4412 4320 4284 4022 3821 3434 2716 2486 2168 1821 1434 1338 1462 1079 1186 969 976 878 640 341 744 847 986 1056 1009 943 1117 1213 1429 1421 1494 1502 1429
6164 5732 5524 5366 5111 4931 4863 4849 4711 4494 4374 4149 3831 3686 3267 2806 2510 2244 1882 1560 1444 1474 920 1199 1036 998 839 510 358 656 520 732 1114 1105 1017 940 875 856 1108 1461 1457 1451
5777 5540 5358 5178 4942 4827 4670 4633 4569 4566 4416 3964 3708 3405 2976 2820 2521 2265 2022 1704 1456 1230 1073 1428 1521 1083 843 478 464 448 0 18 637 781 621 519 548 812 1190 1444 1408 1612
5539 5399 5195 4975 4770 4622 4521 4438 4456 4556 4320 4017 3554 3168 3002 2779 2503 2232 2052 1777 1509 1370 1311 1675 1250 1146 1024 716 463 368 76 92 374 506 696 591 686 1379 1056 1088 1197 1202
5306 5123 4933 4703 4404 4231 4115 4014 4237 4478 4472 4264 3833 3374 2936 2787 2556 2283 2003 1828 1714 1656 1456 1381 1354 1370 1185 595 348 434 120 340 500 786 1022 982 1866 1108 1487 1359 1298 1208
4975 4621 4415 4264 4056 3936 3785 3632 3651 4088 4292 4285 4099 3392 2938 2772 2681 2513 2282 2082 1878 1698 1560 1524 1562 1578 1473 1194 680 421 372 490 882 984 938 987 1773 1583 1448 1454 1320 1136
4589 4380 4053 3842 3848 3691 3396 3446 3474 3750 3981 4029 3837 3658 3146 2798 2634 2523 2342 2210 2051 1854 1635 1465 1382 1326 1247 1064 953 875 734 836 1112 963 1294 1709 1865 1170 897 811 710 668
4270 4070 3879 3708 3865 3618 3425 3578 3576 3396 3725 3783 3710 3465 3431 2826 2588 2398 2334 2286 2216 1926 1700 1611 1423 1207 1047 1124 866 464 694 1212 1500 1754 1735 1976 1516 897 804 723 748 809
Wind_Speed
21 22 23 23 24 24 23 23 22 20 21 22 22 21 22 21 21 26 28 27 27 26 28 29 26 27 27 26 25 23 26 29 26 28 26 25 23 20 21 22 22 22
22 24 24 24 24 24 23 23 23 21 21 21 20 21 20 24 24 26 28 30 29 29 30 31 31 30 30 30 30 29 27 28 28 27 28 27 25 22 20 22 23 24
23 25 25 25 24 24 24 22 22 21 20 19 19 20 22 25 27 26 28 30 31 30 30 31 31 31 31 31 33 33 32 31 30 28 30 29 27 24 22 22 25 25
24 24 24 23 23 23 21 20 19 20 19 19 18 20 24 26 27 28 28 31 32 31 31 30 30 31 31 32 33 34 33 33 33 31 30 32 29 26 25 24 25 26
23 22 21 21 20 20 19 18 19 19 19 20 20 21 24 26 28 28 28 30 32 31 30 30 31 31 32 32 33 34 33 33 34 34 31 34 33 29 26 26 28 28
21 20 20 20 19 18 18 18 18 19 20 21 21 21 23 26 28 28 29 32 32 32 32 31 31 31 32 32 32 33 33 33 33 34 33 34 34 32 29 29 30 32
21 20 21 20 19 18 18 19 19 20 21 20 21 20 23 27 29 29 30 32 34 33 33 33 33 33 33 34 35 35 32 31 31 34 34 34 34 32 30 29 32 32
22 21 20 19 19 19 18 20 21 21 21 19 21 22 25 28 31 30 30 33 34 33 32 33 34 36 36 37 37 38 36 35 32 34 35 34 33 32 29 29 31 30
21 20 20 20 20 20 22 23 23 21 21 21 21 23 26 27 30 32 33 34 33 34 34 34 35 37 37 38 39 40 39 38 36 34 36 34 33 32 32 33 32 30
21 20 21 22 22 21 25 25 24 22 22 23 23 24 27 29 31 33 35 36 35 35 36 37 39 40 40 40 41 41 40 40 39 38 36 33 32 33 33 33 32 31
21 20 21 23 24 24 26 26 23 23 24 27 27 27 29 31 32 33 35 38 38 39 41 41 42 42 43 44 44 43 42 41 39 39 38 35 33 32 33 33 34 33
21 20 21 23 24 23 24 23 21 22 25 28 30 31 31 33 36 36 37 40 41 41 42 44 43 43 44 46 47 47 45 43 40 39 38 36 35 34 33 34 34 34
21 21 20 21 20 20 19 20 21 24 27 28 30 32 34 35 37 39 40 42 44 44 45 46 45 45 45 46 47 48 47 44 42 40 38 36 35 34 34 35 35 35
20 20 19 19 18 18 18 19 20 21 23 25 28 33 36 37 38 41 42 43 46 47 47 47 47 46 46 46 47 48 47 44 43 41 40 39 37 35 35 35 36 36
19 18 17 17 16 16 17 18 20 20 23 27 29 31 33 37 38 41 43 45 47 48 49 49 48 47 46 48 49 50 48 47 44 43 41 41 38 36 36 36 36 37
18 17 16 16 15 15 17 20 21 23 27 30 33 34 34 37 41 41 43 47 49 49 50 50 48 46 48 53 51 50 50 47 45 42 41 41 40 38 37 38 38 38
18 17 15 15 15 16 19 23 26 28 30 32 35 37 38 41 44 45 44 46 50 53 53 51 49 47 54 55 55 54 50 47 45 44 43 43 43 41 39 39 39 40
18 18 16 16 19 22 23 25 28 30 32 35 38 40 40 43 47 47 46 47 49 52 54 53 51 51 56 58 56 56 53 47 44 44 44 44 44 42 39 39 40 40
20 20 19 21 24 26 27 28 30 32 34 37 40 41 41 43 44 47 48 49 49 52 54 54 50 54 60 63 58 56 55 49 44 46 46 44 44 43 41 39 41 43
23 23 23 25 27 28 29 30 32 33 34 37 40 42 42 43 43 46 48 50 51 52 52 54 51 57 66 66 60 58 53 44 42 45 44 43 43 42 42 41 43 44
25 27 28 29 30 30 31 31 32 33 35 38 41 45 47 46 47 49 50 51 54 54 53 55 53 63 71 69 64 58 nan nan 39 43 42 41 40 41 42 42 43 43
29 30 31 31 32 32 31 31 33 34 36 39 41 45 48 49 49 50 52 54 56 56 55 57 56 65 71 67 61 54 nan nan 38 41 42 42 41 45 44 42 43 43
32 33 34 34 34 34 33 34 34 36 37 39 42 45 49 51 52 52 53 55 57 58 59 58 58 63 69 62 55 49 43 40 41 42 42 42 44 46 43 40 42 47
34 36 37 37 37 37 37 36 36 36 38 41 43 47 50 52 53 54 55 57 58 59 59 59 59 63 68 59 51 46 45 42 42 43 45 43 43 45 44 43 47 51
38 39 41 42 41 41 42 41 39 39 40 42 44 47 50 52 53 54 57 57 56 58 60 60 60 59 61 55 48 47 44 41 43 45 47 43 44 46 45 45 45 48
42 44 46 46 46 46 46 44 42 41 42 44 44 47 49 51 54 55 57 56 58 58 55 56 58 53 51 52 47 49 46 42 46 48 46 44 46 45 42 42 43 43
Wind_Direction
297 297 302 306 309 310 309 310 312 316 315 317 320 322 323 324 324 320 322 324 327 329 325 325 323 320 320 317 311 309 305 306 307 307 307 307 305 303 298 300 297 296
301 300 301 306 308 308 308 312 314 318 318 318 320 320 323 325 327 324 326 326 328 330 326 325 323 320 318 315 311 310 304 303 306 304 308 309 308 307 303 297 299 296
301 303 308 313 313 316 320 316 316 317 317 320 321 318 323 324 328 327 326 325 327 327 325 323 323 322 319 314 310 307 306 303 303 300 299 302 304 305 300 297 295 295
306 309 313 319 322 323 322 318 317 318 320 321 321 314 320 325 327 327 326 331 330 330 325 323 323 325 324 320 315 311 308 304 300 298 295 298 298 297 298 294 291 291
314 317 320 324 327 325 324 324 329 328 331 325 321 319 323 329 330 330 332 337 338 337 331 327 324 325 325 324 321 319 317 310 304 301 297 298 299 295 291 292 291 289
320 323 325 329 328 327 328 332 334 333 334 332 331 328 333 334 335 336 337 340 340 341 338 332 328 326 326 325 323 324 324 321 315 308 303 303 303 299 295 295 293 289
327 327 332 330 332 333 333 333 331 329 331 333 332 338 336 337 337 339 341 340 341 341 340 335 330 329 328 326 325 327 327 325 319 316 312 311 311 305 299 296 293 290
331 330 332 331 335 336 335 330 330 330 329 332 337 338 338 339 339 338 340 339 339 337 336 331 328 328 327 325 326 327 329 324 322 318 316 314 313 312 306 300 295 294
331 332 334 336 339 335 338 336 334 331 329 335 336 338 337 339 340 340 339 338 335 333 332 330 328 325 322 321 323 326 327 323 322 320 317 315 315 313 311 306 303 296
336 335 336 340 342 337 339 341 338 333 332 336 338 337 338 338 339 340 337 335 334 331 330 327 328 325 322 321 323 323 323 321 319 320 318 316 312 313 313 310 306 299
339 335 336 339 341 336 340 342 338 336 334 337 336 339 338 336 336 337 335 334 336 335 333 330 327 325 324 324 322 322 322 320 317 316 318 317 314 310 311 310 307 304
335 335 336 341 340 339 342 342 338 333 335 334 335 337 336 336 336 335 335 336 336 336 335 330 327 328 327 326 324 323 322 321 317 314 316 317 316 310 306 305 303 301
330 333 333 339 337 337 336 337 338 338 338 338 335 337 336 336 336 335 333 335 334 333 333 331 329 329 327 326 324 322 321 320 318 316 312 314 316 313 308 306 307 305
324 327 329 333 335 334 332 333 335 334 333 333 334 337 336 336 337 335 331 332 332 330 330 330 330 327 324 325 324 320 318 318 315 314 312 312 314 314 310 308 307 307
312 315 321 325 328 328 331 334 337 336 333 334 336 337 335 337 336 334 330 330 329 329 328 327 330 329 324 324 323 320 319 318 315 312 311 309 312 312 310 306 302 300
303 305 311 316 322 329 333 333 332 332 332 332 333 333 330 330 329 330 329 328 327 327 326 325 326 326 327 328 325 320 319 316 313 311 309 307 307 308 308 304 300 295
293 297 300 310 317 318 320 323 326 326 326 326 327 329 329 325 325 329 327 326 327 327 326 323 323 324 328 325 325 324 317 313 312 309 306 306 308 307 307 307 301 295
289 292 295 302 305 310 312 316 319 322 323 322 323 326 327 323 323 324 323 324 326 327 326 325 322 323 323 321 320 321 318 311 309 306 303 305 307 305 305 306 303 297
287 288 294 300 306 307 307 312 318 320 321 320 321 320 320 319 318 319 323 324 324 325 326 325 323 318 318 316 316 318 317 312 306 304 303 306 307 305 301 302 301 296
291 293 297 302 304 307 308 313 318 319 316 314 313 312 312 312 317 319 321 323 322 321 322 321 320 315 314 314 319 318 314 304 299 299 301 301 300 299 300 300 298 297
295 297 299 301 306 308 309 312 313 311 311 311 312 312 314 317 319 319 318 319 319 319 320 320 315 314 311 317 320 315 nan nan 297 297 295 294 296 299 298 293 293 294
295 295 295 297 301 302 305 307 305 307 310 310 310 312 314 315 315 314 314 315 315 317 317 316 310 312 312 318 316 310 nan nan 300 298 297 300 299 291 296 299 295 295
288 291 294 296 297 298 300 301 300 302 305 305 308 310 310 310 310 311 309 312 313 313 312 311 306 312 310 313 310 315 312 302 299 298 298 297 293 297 298 296 295 287
285 288 289 290 291 293 293 291 293 294 299 301 305 305 306 307 308 308 309 313 315 315 313 310 307 310 313 317 321 315 309 306 299 295 291 291 294 296 297 294 288 287
280 282 284 287 287 287 286 288 292 294 297 299 301 301 302 304 308 309 310 313 314 314 314 310 306 310 315 314 311 313 311 302 299 293 292 297 295 291 295 299 300 301
279 281 283 284 281 279 280 285 290 294 298 299 299 300 302 303 304 307 309 311 311 309 307 307 306 302 306 309 313 309 310 303 295 291 292 295 294 296 297 297 299 299